Weather History for Sand Point, AK

Change the Weather History Date:

Friday, October 11, 2013

  Actual Average Record
Temperature  
Mean Temperature 48 °F -  
Max Temperature 50 °F 45 °F 53 °F (1990)
Min Temperature 46 °F 39 °F 35 °F (2001)
Degree Days  
Heating Degree Days 17    
Moisture  
Dew Point 46 °F    
Average Humidity 95    
Maximum Humidity 100    
Minimum Humidity 87    
Precipitation  
Precipitation 0.00 in - - ()
Sea Level Pressure  
Sea Level Pressure 29.45 in    
Wind  
Wind Speed 17 mph (SSE)    
Max Wind Speed 46 mph    
Max Gust Speed 53 mph    
Visibility 7 miles    
Events      
Averages and records for this station are not official NWS values.
T = Trace of Precipitation, MM = Missing Value Source: NWS Daily Summary

Daily Weather History Graph

Daily Weather History Graph

Search for Another Location

Airport:

Trip Planner

Search our weather history database for the weather conditions in past years. The results will help you decide how hot, cold, wet, or windy it might be!

Date:

Astronomy

Oct. 11, 2013 Rise Set
Actual Time 9:05 AM AKDT 7:51 PM AKDT
Civil Twilight 8:28 AM AKDT 8:27 PM AKDT
Nautical Twilight 7:46 AM AKDT 9:09 PM AKDT
Astronomical Twilight 7:03 AM AKDT 9:52 PM AKDT
Moon 4:27 PM AKDT (10/11) 12:07 AM AKDT (10/11)
Length of Visible Light 11h 59m
Length of Day
10h 45m
Waxing Crescent, 49% of the Moon is Illuminated
Oct 11
Waxing Crescent
Oct 11
First Quarter
Oct 18
Full
Oct 26
Last Quarter
Nov 3
New

Hourly Weather History & Observations

Time (AKDT) Temp. Windchill Dew Point Humidity Pressure Visibility Wind Dir Wind Speed Gust Speed Precip Events Conditions
12:16 AM 48.2 °F - 46.4 °F 93% 29.71 in 10.0 mi South 11.5 mph - N/A   Overcast
12:36 AM 48.2 °F - 46.4 °F 93% 29.71 in 10.0 mi SSW 11.5 mph - N/A   Scattered Clouds
12:56 AM 48.2 °F - 46.4 °F 93% 29.71 in 10.0 mi South 11.5 mph - N/A   Scattered Clouds
1:16 AM 48.2 °F - 46.4 °F 93% 29.71 in 10.0 mi South 11.5 mph - N/A   Overcast
1:36 AM 48.2 °F - 46.4 °F 93% 29.71 in 10.0 mi South 11.5 mph - N/A   Overcast
1:56 AM 48.2 °F - 46.4 °F 93% 29.71 in 10.0 mi South 11.5 mph - N/A   Overcast
2:16 AM 48.2 °F - 46.4 °F 93% 29.71 in 10.0 mi South 10.4 mph - N/A   Overcast
2:36 AM 48.2 °F - 46.4 °F 93% 29.71 in 10.0 mi South 11.5 mph - N/A   Overcast
2:56 AM 48.2 °F - 46.4 °F 93% 29.71 in 10.0 mi South 13.8 mph - N/A   Overcast
3:16 AM 46.4 °F 41.1 °F 46.4 °F 100% 29.71 in 10.0 mi South 11.5 mph - N/A   Overcast
3:36 AM 46.4 °F 40.7 °F 44.6 °F 93% 29.71 in 10.0 mi South 12.7 mph - N/A   Mostly Cloudy
3:56 AM 46.4 °F 40.7 °F 44.6 °F 93% 29.71 in 10.0 mi South 12.7 mph - N/A   Mostly Cloudy
4:16 AM 46.4 °F 40.7 °F 44.6 °F 93% 29.71 in 10.0 mi South 12.7 mph - N/A   Mostly Cloudy
4:36 AM 46.4 °F 41.5 °F 44.6 °F 93% 29.71 in 10.0 mi South 10.4 mph - N/A   Overcast
4:56 AM 46.4 °F 41.1 °F 44.6 °F 93% 29.70 in 10.0 mi South 11.5 mph - N/A   Overcast
5:16 AM 46.4 °F 42.4 °F 44.6 °F 93% 29.70 in 10.0 mi South 8.1 mph - N/A   Overcast
5:36 AM 46.4 °F 42.9 °F 44.6 °F 93% 29.68 in 9.0 mi SSE 6.9 mph - N/A   Overcast
5:56 AM 46.4 °F 40.7 °F 46.4 °F 100% 29.68 in 9.0 mi South 12.7 mph - N/A   Overcast
6:16 AM 46.4 °F 40.7 °F 46.4 °F 100% 29.67 in 10.0 mi South 12.7 mph - N/A   Overcast
6:36 AM 46.4 °F 40.4 °F 46.4 °F 100% 29.66 in 10.0 mi South 13.8 mph - N/A   Overcast
6:56 AM 46.4 °F 39.8 °F 46.4 °F 100% 29.67 in 8.0 mi South 16.1 mph - N/A   Overcast
7:16 AM 46.4 °F 40.1 °F 46.4 °F 100% 29.65 in 10.0 mi South 15.0 mph - N/A   Overcast
7:36 AM 46.4 °F 40.1 °F 46.4 °F 100% 29.65 in 10.0 mi SSE 15.0 mph - N/A   Overcast
7:56 AM 46.4 °F 40.7 °F 46.4 °F 100% 29.65 in 10.0 mi SSE 12.7 mph 19.6 mph N/A   Overcast
8:16 AM 46.4 °F 40.4 °F 46.4 °F 100% 29.64 in 10.0 mi SSE 13.8 mph 21.9 mph N/A   Overcast
8:36 AM 46.4 °F 40.1 °F 46.4 °F 100% 29.63 in 10.0 mi SSE 15.0 mph 20.7 mph N/A   Overcast
8:56 AM 46.4 °F 41.1 °F 46.4 °F 100% 29.62 in 10.0 mi SSE 11.5 mph 19.6 mph N/A   Overcast
9:16 AM 46.4 °F 41.1 °F 46.4 °F 100% 29.61 in 10.0 mi SE 11.5 mph 16.1 mph N/A   Overcast
9:36 AM 46.4 °F 40.4 °F 46.4 °F 100% 29.60 in 9.0 mi SE 13.8 mph 19.6 mph N/A   Overcast
9:56 AM 46.4 °F 41.1 °F 44.6 °F 93% 29.59 in 10.0 mi SE 11.5 mph 18.4 mph N/A   Overcast
10:16 AM 48.2 °F - 44.6 °F 87% 29.59 in 10.0 mi SSE 13.8 mph 20.7 mph N/A   Overcast
10:36 AM 46.4 °F 40.1 °F 44.6 °F 93% 29.58 in 6.0 mi SSE 15.0 mph 24.2 mph N/A   Overcast
10:56 AM 46.4 °F 39.8 °F 44.6 °F 93% 29.57 in 6.0 mi SSE 16.1 mph 19.6 mph N/A   Overcast
11:16 AM 46.4 °F 40.4 °F 44.6 °F 93% 29.56 in 6.0 mi SE 13.8 mph 21.9 mph N/A   Overcast
11:36 AM 46.4 °F 40.4 °F 44.6 °F 93% 29.55 in 6.0 mi SE 13.8 mph 17.3 mph N/A   Overcast
11:56 AM 46.4 °F 41.9 °F 44.6 °F 93% 29.54 in 6.0 mi SSE 9.2 mph 19.6 mph N/A   Overcast
12:16 PM 46.4 °F 41.5 °F 44.6 °F 93% 29.52 in 6.0 mi SE 10.4 mph 17.3 mph N/A   Overcast
12:36 PM 46.4 °F 41.1 °F 44.6 °F 93% 29.51 in 5.0 mi SSE 11.5 mph 18.4 mph N/A   Overcast
12:56 PM 46.4 °F 41.1 °F 44.6 °F 93% 29.49 in 7.0 mi SSE 11.5 mph 17.3 mph N/A   Overcast
1:16 PM 46.4 °F 42.4 °F 44.6 °F 93% 29.47 in 7.0 mi SE 8.1 mph 18.4 mph N/A   Overcast
1:36 PM 46.4 °F 41.9 °F 44.6 °F 93% 29.44 in 7.0 mi SE 9.2 mph 19.6 mph N/A   Overcast
1:56 PM 46.4 °F 41.9 °F 46.4 °F 100% 29.41 in 4.0 mi SE 9.2 mph 19.6 mph N/A   Overcast
2:16 PM 48.2 °F - 46.4 °F 93% 29.38 in 4.0 mi SE 11.5 mph 21.9 mph N/A   Overcast
2:36 PM 48.2 °F - 48.2 °F 100% 29.36 in 3.0 mi SE 11.5 mph 20.7 mph N/A   Overcast
2:56 PM 50.0 °F - 48.2 °F 94% 29.33 in 3.0 mi SSE 23.0 mph 29.9 mph N/A   Overcast
3:16 PM 50.0 °F - 50.0 °F 100% 29.30 in 3.0 mi SSE 26.5 mph 36.8 mph N/A   Overcast
3:36 PM 50.0 °F - 50.0 °F 100% 29.28 in 3.0 mi SSE 24.2 mph 36.8 mph N/A   Overcast
3:56 PM 50.0 °F - 50.0 °F 100% 29.26 in 2.5 mi SSE 28.8 mph 32.2 mph N/A   Overcast
4:16 PM 50.0 °F - 50.0 °F 100% 29.25 in 2.5 mi SSE 25.3 mph 36.8 mph N/A   Overcast
4:36 PM 50.0 °F - 50.0 °F 100% 29.22 in 3.0 mi SSE 28.8 mph 38.0 mph N/A   Overcast
4:56 PM 50.0 °F - 50.0 °F 100% 29.21 in 4.0 mi SSE 26.5 mph 35.7 mph N/A   Overcast
5:16 PM 50.0 °F - 50.0 °F 100% 29.19 in 5.0 mi SSE 25.3 mph 40.3 mph N/A   Overcast
5:36 PM 50.0 °F - 50.0 °F 100% 29.17 in 5.0 mi SSE 29.9 mph 40.3 mph N/A   Overcast
5:56 PM 50.0 °F - 50.0 °F 100% 29.16 in 2.5 mi SSE 36.8 mph 52.9 mph N/A   Overcast
6:16 PM 48.2 °F - 48.2 °F 100% 29.15 in 2.5 mi SSE 41.4 mph 49.5 mph N/A   Overcast
6:36 PM 50.0 °F - 48.2 °F 94% 29.15 in 4.0 mi SSE 39.1 mph 47.2 mph N/A   Overcast
6:56 PM 48.2 °F - 48.2 °F 100% 29.15 in 7.0 mi South 40.3 mph 47.2 mph N/A   Overcast
7:16 PM 48.2 °F - 46.4 °F 93% 29.13 in 7.0 mi South 38.0 mph 47.2 mph N/A   Overcast
7:36 PM 48.2 °F - 46.4 °F 93% 29.13 in 7.0 mi South 46.0 mph 51.8 mph N/A   Overcast
7:56 PM 48.2 °F - 46.4 °F 93% 29.14 in 7.0 mi South 41.4 mph 51.8 mph N/A   Overcast
8:16 PM 48.2 °F - 44.6 °F 87% 29.14 in 4.0 mi South 41.4 mph 49.5 mph N/A   Overcast
8:36 PM 48.2 °F - 46.4 °F 93% 29.15 in 5.0 mi South 42.6 mph 51.8 mph N/A   Overcast
8:56 PM 48.2 °F - 44.6 °F 87% 29.15 in 8.0 mi South 36.8 mph 50.6 mph N/A   Overcast
9:16 PM 48.2 °F - 44.6 °F 87% 29.15 in 8.0 mi South 34.5 mph 47.2 mph N/A   Overcast
9:36 PM 48.2 °F - 44.6 °F 87% 29.16 in 10.0 mi South 39.1 mph 46.0 mph N/A   Overcast
9:56 PM 48.2 °F - 44.6 °F 87% 29.17 in 8.0 mi South 39.1 mph 46.0 mph N/A   Overcast
10:16 PM 48.2 °F - 44.6 °F 87% 29.17 in 5.0 mi South 34.5 mph 48.3 mph N/A   Overcast
10:36 PM 46.4 °F 36.4 °F 44.6 °F 93% 29.18 in 3.0 mi South 35.7 mph 40.3 mph N/A   Overcast
10:56 PM 48.2 °F - 44.6 °F 87% 29.19 in 10.0 mi South 32.2 mph 47.2 mph N/A   Overcast
11:16 PM 48.2 °F - 44.6 °F 87% 29.19 in 10.0 mi South 38.0 mph 47.2 mph N/A   Overcast
11:36 PM 48.2 °F - 44.6 °F 87% 29.20 in 10.0 mi South 28.8 mph 40.3 mph N/A   Overcast
11:56 PM 48.2 °F - 44.6 °F 87% 29.21 in 8.0 mi South 31.1 mph 43.7 mph N/A   Overcast